PROFILE

 METAR AND TAF INFORMATION
ADDS - METARS form results

(0630 UTC 26 January 2021)
http://aviationweather.gov/metar/data/
 
LLBG 260620Z VRB01KT CAVOK 10/07 Q1022 NOSIG
LLBG 260550Z 00000KT CAVOK 09/07 Q1022 NOSIG
TAF LLBG 260508Z 2606/2706 VRB03KT CAVOK BECMG 2607/2609 35008KT BECMG 2614/2617 14005KT TX20/2611Z TN09/2704Z 

 AIRPORT MAP

 RUNWAY INFORMATION
Runway 03 Runway length 9094 ft Runway width 148 ft
Runway elevation 129 ft Runway displaced threshold 0 ft Runway heading 29
Runway 21 Runway length 9094 ft Runway width 148 ft
Runway elevation 134 ft Runway displaced threshold 0 ft Runway heading 209
Runway 08 Runway length 13327 ft Runway width 148 ft
Runway elevation 97 ft Runway displaced threshold 0 ft Runway heading 80
Runway 26 Runway length 13327 ft Runway width 148 ft
Runway elevation 124 ft Runway displaced threshold 1969 ft Runway heading 260
Runway 12 Runway length 10209 ft Runway width 148 ft
Runway elevation 112 ft Runway displaced threshold 0 ft Runway heading 121
Runway 30 Runway length 10209 ft Runway width 148 ft
Runway elevation 130 ft Runway displaced threshold 246 ft Runway heading 301

 AIRPORT FREQUENCIES
Type APP Name Ben Gurion Frequency 120.5 MHZ
Type ATIS Name ATIS Frequency 132.5 MHZ
Type CLD Name CLNC DEL Frequency 119.35 MHZ
Type GND Name GND WEST Frequency 118.05 MHZ
Type GND Name GND EAST Frequency 129.2 MHZ
Type MISC Name VOLMET Frequency 126.8 MHZ
Type TMA Name Ben Gurion Frequency 119.5 MHZ
Type TWR Name Ben Gurion Frequency 132.1 MHZ
Type TWR Name Ben Gurion Frequency 134.6 MHZ

 AIRPORT NEAR NAVIGATION AIDS
Type VOR-DME Name Ben Gurion Frequency 113500 KHZ
Type NDB Name Tel Aviv Frequency 331 KHZ